Home > Weather > Tehran > Past weeks

Flag for Iran Past Weather in Tehran, Iran — Yesterday and Last 2 Weeks

Now
82 °F

Passing clouds.


Feels Like: 80 °F
Forecast: 67 / 90 °F
Wind: No wind

Location: Tehran-Mehrabad

Current Time: Aug 24, 2016 at 10:43:52 PM

Latest Report: Aug 24, 2016 at 10:00 PM


Visibility: N/A

Pressure: 29.98 "Hg (26.23 "Hg at 1179m altitude)

Humidity: 21%

Dew Point: 39 °F

Location of TehranLocation

Past Weather in Tehran — Graph

°F

Tehran Temperature Yesterday

Maximum temperature yesterday: 90 °F (at 2:30 PM)
Minimum temperature yesterday: 73 °F (at 5:00 AM)
Average temperature yesterday: 83 °F

High & Low Weather Summary for the Past Weeks

 TemperatureHumidityPressure
High100 °F (Aug 12, 5:30 PM)54% (Aug 16, 4:00 AM)30.12 "Hg (Aug 16, 4:00 AM)
Low72 °F (Aug 21, 6:00 AM)7% (Aug 12, 4:30 PM)29.86 "Hg (Aug 12, 4:30 AM)
Average85 °F19%29.99 "Hg
* Reported Aug 9 9:30 PM — Aug 24 9:30 PM, Tehran, Weather by CustomWeather, © 2016

Note: Actual official high and low records may vary slightly from our data, if they occured in-between our weather recording intervals... More about our weather records

Advertising

Tehran Weather History for the Previous 24 Hours

Scroll right to see more
 ConditionsComfort  
Time TempWeatherWind HumidityBarometerVisibility
9:30 PM
Wed, Aug 24
86 °FPassing clouds.5 mph17%29.98 "HgN/A
9:00 PM86 °FPassing clouds.5 mph17%29.95 "HgN/A
8:30 PM88 °FPassing clouds.7 mph16%29.95 "HgN/A
8:00 PM88 °FPassing clouds.5 mph15%29.92 "HgN/A
7:30 PM90 °FPassing clouds.9 mph13%29.92 "HgN/A
7:00 PM90 °FPassing clouds.9 mph14%29.92 "HgN/A
6:30 PM91 °FPassing clouds.9 mph13%29.92 "HgN/A
6:00 PM91 °FPassing clouds.12 mph13%29.92 "HgN/A
5:30 PM91 °FPassing clouds.14 mph13%29.92 "HgN/A
5:00 PM91 °FPassing clouds.10 mph13%29.95 "HgN/A
4:30 PM91 °FPassing clouds.7 mph13%29.95 "HgN/A
4:00 PM91 °FPassing clouds.12 mph12%29.95 "HgN/A
3:30 PM91 °FPassing clouds.7 mph13%29.95 "HgN/A
3:00 PM90 °FPassing clouds.12 mph13%29.98 "HgN/A
2:30 PM90 °FPassing clouds.9 mph14%29.98 "HgN/A
2:00 PM88 °FPassing clouds.7 mph16%30.01 "HgN/A
1:30 PM88 °FPassing clouds.12 mph15%30.01 "HgN/A
1:00 PM86 °FPassing clouds.9 mph18%30.01 "HgN/A
12:30 PM86 °FPassing clouds.9 mph17%30.04 "HgN/A
12:00 PM86 °FPassing clouds.12 mph17%30.04 "HgN/A
11:30 AM84 °FPassing clouds.12 mph18%30.04 "HgN/A
11:00 AM84 °FPassing clouds.7 mph18%30.07 "HgN/A
10:30 AM84 °FPassing clouds.7 mph18%30.07 "HgN/A
10:00 AM82 °FSunny.9 mph19%30.07 "Hg10 mi
9:30 AM82 °FSunny.7 mph19%30.07 "Hg10 mi
9:00 AM82 °FSunny.5 mph20%30.07 "Hg10 mi
8:30 AM81 °FSunny.5 mph24%30.07 "Hg10 mi
8:00 AM79 °FSunny.No wind28%30.07 "Hg10 mi
7:30 AM75 °FClear.No wind31%30.07 "Hg10 mi
7:00 AM73 °FClear.No wind36%30.04 "Hg10 mi
6:30 AM73 °FClear.No wind33%30.04 "Hg10 mi
6:00 AM73 °FClear.5 mph31%30.04 "Hg10 mi
5:30 AM73 °FClear.7 mph31%30.04 "Hg10 mi
5:00 AM75 °FClear.5 mph27%30.04 "Hg10 mi
4:30 AM75 °FClear.5 mph27%30.01 "Hg10 mi
4:00 AM75 °FClear.No wind24%30.01 "Hg10 mi
3:30 AM77 °FClear.5 mph22%30.01 "Hg10 mi
3:00 AM77 °FClear.No wind30%30.01 "Hg10 mi
2:30 AM79 °FClear.5 mph30%30.01 "Hg10 mi
1:30 AM79 °FClear.5 mph26%30.01 "Hg10 mi
1:00 AM81 °FClear.No wind26%30.04 "Hg10 mi
12:30 AM81 °FClear.5 mph24%30.04 "Hg10 mi
12:00 AM81 °FClear.5 mph24%30.04 "Hg10 mi
11:30 PM
Tue, Aug 23
79 °FClear.5 mph26%30.04 "Hg10 mi
11:00 PM81 °FClear.5 mph24%30.04 "Hg10 mi
10:30 PM81 °FClear.5 mph23%30.04 "Hg10 mi
10:00 PM82 °FClear.No wind21%29.95 "Hg10 mi
Weather by CustomWeather, © 2016

See weather overviewHow to use our weather pages